This is the latest recevied weather packets stored in our database for station/object IR3AS. If no packets are shown the sender has not sent any weather packets the latest 10 day(s).
| Time | Temp. | Humidity | Pressure | Rain* | Wind** | Luminosity | Snow |
|---|---|---|---|---|---|---|---|
| 1787667005 | 12.78° C | 91% | 866 hPa | 0 mm | - | - | - |
| 1787666706 | 12.22° C | 90% | 866.2 hPa | 0 mm | - | - | - |
| 1787666405 | 11.67° C | 90% | 866.3 hPa | 0 mm | - | - | - |
| 1787666105 | 11.67° C | 90% | 866.2 hPa | 0 mm | - | - | - |
| 1787665805 | 11.67° C | 89% | 865.7 hPa | 0 mm | - | - | - |
| 1787665505 | 11.11° C | 89% | 866.3 hPa | 0 mm | - | - | - |
| 1787665205 | 11.67° C | 89% | 865.9 hPa | 0 mm | - | - | - |
| 1787664907 | 11.67° C | 88% | 866 hPa | 0 mm | - | - | - |
| 1787664605 | 12.22° C | 87% | 865.4 hPa | 0 mm | - | - | - |
| 1787664305 | 12.78° C | 85% | 865.2 hPa | 0 mm | - | - | - |
| 1787664006 | 13.33° C | 84% | 865.1 hPa | 0 mm | - | - | - |
| 1787663705 | 13.89° C | 83% | 865.1 hPa | 0 mm | - | - | - |
| 1787663407 | 13.89° C | 83% | 864.6 hPa | 0 mm | - | - | - |
| 1787663106 | 14.44° C | 83% | 864 hPa | 0 mm | - | - | - |
| 1787662805 | 14.44° C | 85% | 864.3 hPa | 0 mm | - | - | - |
| 1787662506 | 13.89° C | 87% | 863.2 hPa | 0 mm | - | - | - |
| 1787662206 | 13.89° C | 87% | 863.2 hPa | 0 mm | - | - | - |
| 1787661905 | 14.44° C | 87% | 862.6 hPa | 0 mm | - | - | - |
| 1787661605 | 13.89° C | 90% | 862 hPa | 0 mm | - | - | - |
| 1787661306 | 12.78° C | 90% | 861.8 hPa | 0 mm | - | - | - |
| 1787661006 | 12.22° C | 90% | 861.7 hPa | 0 mm | - | - | - |
| 1787660706 | 12.22° C | 90% | 861.8 hPa | 0 mm | - | - | - |
| 1787660406 | 12.22° C | 90% | 861.7 hPa | 0 mm | - | - | - |
| 1787660108 | 12.78° C | 90% | 861.4 hPa | 0 mm | - | - | - |
| 1787659806 | 12.78° C | 91% | 861.5 hPa | 0 mm | - | - | - |
* Rain latest hour (hover to see other rain measurements)
** Current wind speed in m/s (hover to see current wind gust speed)